Simultaneous Nadir Overpasses (SNOs) Predictions

Prediction of SNOs between GOES-16 and NOAA-19 Satellite Orbit:

Table of predicted SNOs for the next 14.0 days since TLE Epoch: 6/29/2020
Index Date Time (GOES-16) GOES-16 Lat,Lon NOAA-19 Lat,Lon Distance(km) Time Diff (sec)
1 06/29/2020 10:57:25 0.02, -75.20 0.11, -75.54 39.27 80
2 06/30/2020 10:45:44 0.02, -75.21 -0.58, -72.70 286.98 80
3 07/02/2020 23:09:31 -0.01, -75.20 -0.59, -77.69 284.12 80
4 07/03/2020 22:55:10 -0.00, -75.20 0.06, -74.83 42.37 80
5 07/04/2020 22:43:29 0.00, -75.21 0.77, -71.98 368.83 80
6 07/07/2020 11:07:02 -0.01, -75.25 0.39, -76.92 190.43 80
7 07/08/2020 10:52:42 -0.02, -75.27 -0.30, -74.07 136.71 80
8 07/09/2020 10:41:00 -0.02, -75.28 -0.94, -71.21 464.10 80
9 07/10/2020 23:16:26 0.02, -75.29 -0.85, -79.05 429.76 80
10 07/11/2020 23:02:05 0.02, -75.31 -0.20, -76.20 101.62 80
11 07/12/2020 22:53:03 0.02, -75.33 0.46, -73.34 226.69 80
